Weather History for KGMJ - October, 2011

Change the Weather History Date:

Tuesday, October 4, 2011

  Actual Average (KSLG) Record (KSLG)
Temperature  
Mean Temperature 66 °F -  
Max Temperature 82 °F 71 °F 89 °F (2006)
Min Temperature 50 °F 50 °F 37 °F (2014)
Cooling Degree Days 1    
Growing Degree Days 16 (Base 50)    
Moisture  
Dew Point 50 °F    
Average Humidity 66    
Maximum Humidity 100    
Minimum Humidity 26    
Precipitation  
Precipitation 0.00 in - - ()
Sea Level Pressure  
Sea Level Pressure 30.21 in    
Wind  
Wind Speed 1 mph (South)    
Max Wind Speed 9 mph    
Max Gust Speed -    
Visibility 10 miles    
Events      
Averages and records for this station are not official NWS values.
T = Trace of Precipitation, MM = Missing Value Source: NWS Daily Summary

Daily Weather History Graph

Daily Weather History Graph

Search for Another Location

Airport or City:

Trip Planner

Search our weather history database for the weather conditions in past years. The results will help you decide how hot, cold, wet, or windy it might be!

Date:

Astronomy

Oct. 04, 2011 Rise Set
Actual Time 7:16 AM CDT 6:58 PM CDT
Civil Twilight 6:50 AM CDT 7:24 PM CDT
Nautical Twilight 6:20 AM CDT 7:53 PM CDT
Astronomical Twilight 5:50 AM CDT 8:24 PM CDT
Moon 2:50 PM CDT (10/4) 12:11 AM CDT (10/4)
Length of Visible Light 12h 33m
Length of Day
11h 41m
First Quarter, 56% of the Moon is Illuminated
Oct 4
First Quarter
Oct 11
Full
Oct 19
Last Quarter
Oct 26
New
Nov 2
First Quarter

Hourly Weather History & Observations

Time (CDT) Temp. Dew Point Humidity Pressure Visibility Wind Dir Wind Speed Gust Speed Precip Events Conditions
12:15 AM 53.6 °F 51.8 °F 94% 30.20 in 10.0 mi Calm Calm - N/A   Clear
12:35 AM 53.6 °F 51.8 °F 94% 30.20 in 10.0 mi Calm Calm - N/A   Clear
12:55 AM 53.6 °F 53.6 °F 100% 30.20 in 10.0 mi Calm Calm - N/A   Clear
1:15 AM 53.6 °F 53.6 °F 100% 30.20 in 10.0 mi Calm Calm - N/A   Clear
1:35 AM 53.6 °F 53.6 °F 100% 30.20 in 10.0 mi Calm Calm - N/A   Clear
1:55 AM 53.6 °F 51.8 °F 94% 30.20 in 10.0 mi Calm Calm - N/A   Clear
2:15 AM 51.8 °F 51.8 °F 100% 30.21 in 10.0 mi Calm Calm - N/A   Clear
2:35 AM 53.6 °F 51.8 °F 94% 30.20 in 10.0 mi Calm Calm - N/A   Clear
2:55 AM 51.8 °F 51.8 °F 100% 30.20 in 10.0 mi Calm Calm - N/A   Clear
3:15 AM 51.8 °F 51.8 °F 100% 30.20 in 10.0 mi Calm Calm - N/A   Clear
3:35 AM 51.8 °F 51.8 °F 100% 30.20 in 10.0 mi Calm Calm - N/A   Clear
3:55 AM 51.8 °F 51.8 °F 100% 30.20 in 10.0 mi Calm Calm - N/A   Clear
4:15 AM 51.8 °F 51.8 °F 100% 30.21 in 10.0 mi Calm Calm - N/A   Scattered Clouds
4:35 AM 51.8 °F 51.8 °F 100% 30.21 in 10.0 mi Calm Calm - N/A   Clear
4:55 AM 51.8 °F 51.8 °F 100% 30.22 in 10.0 mi Calm Calm - N/A   Clear
5:15 AM 51.8 °F 51.8 °F 100% 30.22 in 10.0 mi Calm Calm - N/A   Clear
5:35 AM 51.8 °F 51.8 °F 100% 30.22 in 10.0 mi ENE 3.5 mph - N/A   Clear
5:55 AM 51.8 °F 51.8 °F 100% 30.23 in 10.0 mi ENE 3.5 mph - N/A   Clear
6:15 AM 50.0 °F 50.0 °F 100% 30.23 in 10.0 mi Calm Calm - N/A   Clear
6:35 AM 50.0 °F 50.0 °F 100% 30.23 in 10.0 mi Calm Calm - N/A   Clear
6:55 AM 50.0 °F 50.0 °F 100% 30.24 in 10.0 mi Calm Calm - N/A   Clear
7:15 AM 50.0 °F 50.0 °F 100% 30.25 in 10.0 mi Calm Calm - N/A   Clear
7:35 AM 50.0 °F 50.0 °F 100% 30.25 in 10.0 mi Calm Calm - N/A   Clear
8:15 AM 51.8 °F 50.0 °F 94% 30.26 in 10.0 mi Calm Calm - N/A   Clear
8:35 AM 53.6 °F 51.8 °F 94% 30.27 in 10.0 mi Calm Calm - N/A   Clear
9:15 AM 59.0 °F 51.8 °F 77% 30.28 in 10.0 mi Calm Calm - N/A   Clear
9:35 AM 60.8 °F 51.8 °F 72% 30.28 in 10.0 mi Calm Calm - N/A   Clear
9:55 AM 64.4 °F 51.8 °F 64% 30.28 in 10.0 mi Calm Calm - N/A   Clear
10:15 AM 69.8 °F 48.2 °F 46% 30.28 in 10.0 mi South 4.6 mph - N/A   Clear
10:35 AM 71.6 °F 46.4 °F 41% 30.28 in 10.0 mi South 6.9 mph - N/A   Clear
11:15 AM 75.2 °F 44.6 °F 34% 30.27 in 10.0 mi South 6.9 mph - N/A   Clear
11:35 AM 77.0 °F 46.4 °F 34% 30.27 in 10.0 mi South 6.9 mph - N/A   Clear
11:55 AM 77.0 °F 46.4 °F 34% 30.26 in 10.0 mi South 6.9 mph - N/A   Clear
12:15 PM 78.8 °F 46.4 °F 32% 30.26 in 10.0 mi South 5.8 mph - N/A   Clear
12:35 PM 78.8 °F 46.4 °F 32% 30.25 in 10.0 mi SSW 6.9 mph - N/A   Clear
12:55 PM 78.8 °F 44.6 °F 30% 30.24 in 10.0 mi SSW 4.6 mph - N/A   Clear
1:15 PM 80.6 °F 44.6 °F 28% 30.23 in 10.0 mi South 6.9 mph - N/A   Clear
1:35 PM 80.6 °F 44.6 °F 28% 30.23 in 10.0 mi South 5.8 mph - N/A   Clear
1:55 PM 80.6 °F 44.6 °F 28% 30.22 in 10.0 mi SSW 6.9 mph - N/A   Clear
2:15 PM 80.6 °F 44.6 °F 28% 30.21 in 10.0 mi SSW 5.8 mph - N/A   Clear
2:35 PM 82.4 °F 46.4 °F 28% 30.20 in 10.0 mi South 9.2 mph - N/A   Clear
2:55 PM 82.4 °F 44.6 °F 26% 30.19 in 10.0 mi SSE 4.6 mph - N/A   Clear
3:15 PM 80.6 °F 44.6 °F 28% 30.19 in 10.0 mi SW 3.5 mph - N/A   Clear
3:55 PM 82.4 °F 44.6 °F 26% 30.17 in 10.0 mi South 4.6 mph - N/A   Clear
4:15 PM 82.4 °F 44.6 °F 26% 30.17 in 10.0 mi SSW 3.5 mph - N/A   Clear
4:35 PM 82.4 °F 44.6 °F 26% 30.16 in 10.0 mi SE 6.9 mph - N/A   Clear
5:15 PM 80.6 °F 46.4 °F 30% 30.16 in 10.0 mi SE 3.5 mph - N/A   Clear
5:35 PM 80.6 °F 46.4 °F 30% 30.16 in 10.0 mi SE 4.6 mph - N/A   Clear
5:55 PM 80.6 °F 50.0 °F 34% 30.16 in 10.0 mi SSE 4.6 mph - N/A   Clear
6:15 PM 78.8 °F 50.0 °F 36% 30.16 in 10.0 mi South 3.5 mph - N/A   Clear
6:35 PM 77.0 °F 50.0 °F 39% 30.16 in 10.0 mi SSE 3.5 mph - N/A   Clear
6:55 PM 75.2 °F 50.0 °F 41% 30.16 in 10.0 mi Calm Calm - N/A   Clear
7:15 PM 69.8 °F 51.8 °F 53% 30.16 in 7.0 mi Calm Calm - N/A   Clear
7:35 PM 69.8 °F 50.0 °F 49% 30.16 in 10.0 mi Calm Calm - N/A   Clear
7:55 PM 64.4 °F 53.6 °F 68% 30.16 in 10.0 mi East 3.5 mph - N/A   Clear
8:15 PM 62.6 °F 53.6 °F 72% 30.16 in 10.0 mi Calm Calm - N/A   Clear
8:35 PM 64.4 °F 51.8 °F 64% 30.16 in 10.0 mi Calm Calm - N/A   Clear
8:55 PM 60.8 °F 53.6 °F 77% 30.17 in 10.0 mi Calm Calm - N/A   Clear
9:35 PM 59.0 °F 53.6 °F 82% 30.17 in 10.0 mi Calm Calm - N/A   Clear
9:55 PM 59.0 °F 53.6 °F 82% 30.17 in 10.0 mi Calm Calm - N/A   Clear
10:15 PM 55.4 °F 51.8 °F 88% 30.17 in 10.0 mi Calm Calm - N/A   Clear
10:35 PM 55.4 °F 51.8 °F 88% 30.17 in 10.0 mi Calm Calm - N/A   Clear
11:15 PM 53.6 °F 51.8 °F 94% 30.17 in 10.0 mi Calm Calm - N/A   Clear
11:35 PM 53.6 °F 50.0 °F 88% 30.17 in 10.0 mi Calm Calm - N/A   Clear
11:55 PM 53.6 °F 51.8 °F 94% 30.17 in 10.0 mi Calm Calm - N/A   Clear